Theta_e
313 312 313 313 312 316 318 320 323 323 325 326 322 321 320 321 320 319 322 321 319 318 317 317 318 318 319 318 318 318 317 321 321 324 323 321 321 319 320 318 318 319 318 318 320 324 326 330 331 331 331 331 332 334 336 335 335 334 334 334 334 334 333 333 330 330 331 329 327 327 325 322 322 320 319 319 319 319 320 320 320 320 321 326 329 330 332 334 333 332 332 327 324 325 326 327 325
313 312 314 312 315 321 321 321 326 330 330 321 319 321 318 319 320 321 326 323 320 318 318 318 318 318 318 318 318 318 318 319 319 320 319 320 320 319 320 318 318 318 319 318 319 322 324 327 328 330 331 331 332 334 335 334 334 333 333 333 334 334 333 332 329 330 331 328 325 326 323 321 320 320 320 320 320 319 320 320 321 319 321 328 329 331 334 335 333 333 331 325 322 321 323 326 326
312 313 313 313 318 321 323 323 325 334 332 320 321 327 319 318 324 326 324 321 318 317 319 318 318 319 318 319 319 319 319 319 319 320 319 320 319 318 318 318 318 318 319 318 318 320 323 324 326 328 329 331 331 333 334 333 333 331 331 332 332 333 331 330 329 330 330 326 324 324 322 321 320 320 320 319 320 319 320 320 321 320 321 328 330 330 333 334 333 334 329 323 320 318 317 320 323
313 315 315 317 320 320 331 333 333 339 330 320 321 326 323 320 327 326 318 317 318 318 319 318 318 319 319 320 319 318 318 318 319 319 319 318 318 317 316 316 317 317 318 319 319 319 321 323 324 326 327 329 330 332 333 332 331 330 331 330 331 331 329 328 329 330 328 325 323 322 321 321 320 320 320 320 320 319 321 322 322 321 322 325 329 331 332 333 333 333 328 322 319 317 315 314 316
313 316 317 319 321 320 330 330 330 333 323 323 320 318 329 329 326 321 316 317 319 318 318 318 319 318 318 319 319 319 318 318 319 319 319 317 317 316 316 316 316 316 318 319 319 319 319 321 324 325 325 326 327 329 331 330 329 329 329 329 329 329 328 328 328 328 326 323 321 321 321 321 320 320 320 320 321 322 323 324 323 321 323 325 328 331 332 333 332 331 329 324 322 321 317 313 312
316 317 318 319 320 317 324 323 321 325 323 327 319 317 327 323 319 316 316 319 318 319 318 318 319 318 317 318 318 319 319 319 319 319 318 317 316 316 316 315 315 316 316 319 319 319 319 320 322 324 325 325 326 326 327 328 328 328 327 327 327 327 327 327 326 326 324 321 321 321 320 320 320 320 322 324 324 325 325 323 323 322 324 328 330 332 331 330 329 329 329 327 325 322 317 311 310
319 320 318 320 320 318 329 327 322 324 320 318 316 319 319 313 313 314 316 319 319 318 318 319 317 318 317 317 318 318 318 318 318 318 319 317 316 316 316 315 315 315 315 318 319 319 319 319 320 322 324 325 325 325 325 325 326 326 325 325 325 325 325 325 324 324 323 321 320 320 320 320 320 323 327 329 327 326 324 321 322 323 324 328 331 331 330 328 326 326 326 325 321 316 311 309 310
319 319 317 325 328 327 335 327 325 327 317 312 313 317 315 312 313 315 317 317 318 317 317 318 317 318 318 316 317 318 318 318 318 318 319 317 316 316 316 315 315 315 315 316 318 320 319 319 320 321 323 324 325 324 324 325 325 325 324 324 324 324 323 323 323 323 322 321 321 320 320 320 320 325 329 330 327 325 324 321 322 323 323 326 329 329 329 328 327 324 319 317 315 311 308 308 309
319 319 317 325 332 332 333 322 322 323 320 318 315 316 314 314 314 315 317 316 316 315 316 317 317 318 316 316 317 318 318 318 318 318 319 317 316 317 316 315 315 315 315 315 316 319 319 319 320 321 322 323 325 324 324 325 325 325 324 324 324 323 323 323 322 322 322 321 321 321 321 321 321 326 329 329 328 325 324 322 321 322 322 323 324 325 325 324 323 320 315 312 313 313 309 306 307
319 320 317 324 332 330 325 320 321 321 322 319 314 316 314 314 315 315 316 315 315 314 316 317 317 318 316 317 317 317 317 317 318 318 318 316 316 317 316 316 315 316 315 315 315 317 319 319 319 320 321 322 324 324 324 324 325 325 324 324 324 324 324 323 323 323 322 322 322 321 321 321 322 325 328 328 329 327 326 324 321 321 320 320 319 319 318 318 317 315 313 311 311 312 310 305 305
320 319 318 328 332 324 320 321 328 328 325 319 314 315 315 315 315 314 314 314 315 314 315 317 317 317 316 316 317 317 316 316 316 317 317 317 316 316 316 315 316 316 316 315 315 315 317 319 319 320 321 322 323 324 324 324 325 325 324 324 324 325 324 324 324 323 323 322 322 322 322 322 324 326 327 329 331 329 327 326 324 322 321 320 319 318 316 314 312 311 311 310 310 311 308 305 304
319 320 329 339 328 321 321 323 330 333 330 324 317 315 315 315 315 315 315 314 314 314 315 316 316 316 316 316 316 316 316 315 315 315 316 316 317 316 316 316 316 316 316 316 315 315 315 316 318 319 320 321 322 323 324 324 325 325 325 325 325 325 325 325 324 324 324 324 323 323 323 323 324 326 326 328 331 331 329 327 326 324 324 323 322 321 315 312 311 309 308 309 310 309 306 305 304
319 320 332 332 320 322 323 321 325 329 328 321 314 314 315 314 315 315 314 314 313 315 316 316 316 316 316 316 315 316 315 315 315 316 315 315 316 317 317 316 316 316 316 316 315 315 314 315 316 318 319 320 321 322 323 323 325 325 325 325 325 326 325 325 325 325 324 324 324 324 324 324 325 326 326 326 328 331 331 329 328 327 326 325 326 323 316 312 310 308 308 308 309 308 305 305 304
319 318 325 322 317 324 322 319 322 323 320 317 315 314 315 315 315 315 314 316 314 315 316 316 317 316 315 315 315 316 315 315 315 315 315 315 316 316 317 317 316 316 316 316 316 315 315 314 315 316 318 320 321 322 323 323 324 324 326 326 325 326 325 326 326 326 325 325 325 325 325 325 324 325 325 326 328 330 331 331 330 329 327 326 327 324 317 312 309 306 307 307 308 306 305 304 304
317 316 325 324 319 322 319 319 323 323 319 316 317 314 315 315 315 315 314 316 315 315 316 316 316 316 316 315 315 316 315 315 315 315 315 315 315 316 317 317 317 316 316 316 316 316 315 315 314 315 315 317 320 321 322 323 324 324 324 325 325 326 326 326 326 326 326 326 326 326 326 325 325 325 324 325 327 330 332 332 332 330 329 327 327 325 317 311 308 305 306 306 307 306 305 305 304
316 315 324 323 317 319 317 318 321 322 318 315 316 314 315 315 315 316 315 316 316 316 316 316 316 316 315 315 315 315 315 315 315 315 315 315 315 316 317 317 317 316 316 316 316 316 316 315 315 315 314 315 317 320 322 323 324 325 325 326 326 326 326 326 327 327 327 326 326 326 326 325 325 325 325 323 324 327 329 331 332 330 329 328 328 325 317 311 308 305 305 306 306 305 305 305 304
314 318 327 321 315 318 319 321 321 319 319 317 316 315 315 315 316 316 316 316 315 315 316 316 316 315 315 314 314 314 314 315 314 315 314 315 315 316 316 317 317 316 316 316 316 316 316 316 316 316 315 315 316 318 321 323 324 326 327 328 327 327 326 327 327 328 328 327 325 325 324 324 324 325 325 324 324 324 325 328 330 330 329 328 328 324 315 311 309 305 305 305 305 305 304 304 304
319 327 325 316 317 320 321 325 319 316 318 316 315 315 315 316 316 315 316 316 315 316 315 316 315 314 314 314 314 314 314 314 315 315 315 315 314 315 316 316 316 316 316 316 317 317 317 317 317 317 316 316 316 317 318 321 323 325 327 328 328 328 328 328 328 329 329 328 326 324 322 322 322 323 324 324 324 324 323 325 328 330 329 328 328 323 315 311 310 307 305 305 305 304 304 304 304
321 326 319 321 328 320 316 319 315 314 316 314 315 315 314 315 315 314 316 315 315 315 315 315 314 314 314 314 314 314 314 315 314 314 315 315 315 315 315 315 315 315 316 316 316 317 317 317 317 317 317 317 317 317 318 319 321 323 326 327 327 328 328 328 328 329 329 329 328 326 324 323 323 323 323 323 323 324 324 325 328 329 329 329 327 321 316 313 310 309 306 304 304 304 304 304 303
317 319 321 330 326 315 313 315 315 315 316 314 314 314 313 315 314 314 315 314 314 314 315 313 313 315 314 315 314 314 314 314 314 314 315 315 315 314 314 315 314 315 315 315 315 316 316 316 317 317 317 317 317 318 318 319 319 320 322 325 327 328 328 328 328 328 329 329 329 328 326 325 324 324 323 323 323 324 325 326 327 328 328 327 325 321 318 315 313 310 308 305 304 304 304 304 303
315 318 326 326 313 314 317 315 316 316 315 314 313 313 314 315 314 314 314 315 316 314 313 313 313 314 314 314 314 314 314 314 314 314 314 314 314 314 314 314 314 315 314 315 315 315 315 315 316 317 317 317 317 317 318 319 319 319 320 321 324 326 328 329 329 328 328 327 327 328 327 327 326 325 325 323 323 324 325 327 327 327 327 326 325 324 322 319 316 312 310 307 304 304 304 304 303
317 319 320 317 311 316 318 315 317 315 315 314 313 314 315 314 314 314 314 315 316 314 313 313 313 314 314 314 313 314 314 314 314 314 314 314 314 314 313 314 314 314 314 314 314 314 314 315 316 316 317 317 317 317 318 318 318 319 319 320 322 324 326 329 330 330 332 331 328 326 325 327 327 326 325 324 325 325 325 327 328 327 327 327 326 326 325 323 320 315 313 310 307 305 303 303 303
319 319 315 314 314 316 317 316 316 315 315 314 313 314 313 313 313 313 313 314 315 313 313 313 313 313 313 314 313 314 314 314 314 314 314 314 314 314 313 314 314 314 314 314 314 314 313 314 315 316 316 316 317 317 317 318 319 319 319 320 321 322 324 327 329 328 331 335 334 331 328 327 326 326 325 323 324 324 322 323 325 328 328 326 326 324 324 324 322 318 315 313 311 307 305 303 303
319 321 315 315 315 314 316 315 314 314 314 314 314 313 312 313 314 313 312 313 313 313 313 313 313 313 313 313 313 313 314 313 314 314 314 314 314 314 314 314 314 314 314 314 314 314 314 314 315 316 316 315 316 317 318 318 319 320 320 320 321 321 323 327 329 328 328 332 335 334 334 332 328 327 327 323 321 320 323 325 324 324 325 326 325 322 323 324 321 319 317 315 313 311 307 304 303
318 320 315 313 314 314 314 313 314 314 313 314 313 312 312 313 312 312 311 312 312 312 313 312 312 312 313 313 313 313 313 313 313 313 313 313 313 313 313 313 313 313 314 314 314 314 314 314 315 316 316 315 316 317 318 319 320 321 321 321 322 322 323 325 330 333 332 333 333 331 332 332 328 327 327 325 321 320 325 332 332 326 325 327 325 323 325 324 321 319 319 317 315 314 310 306 304
315 317 314 312 313 313 314 314 314 313 313 313 312 312 312 311 312 311 310 311 311 312 312 312 312 313 313 313 312 313 313 313 313 313 312 312 312 312 312 312 313 313 313 313 313 314 314 315 316 316 316 316 316 317 318 320 321 322 322 323 323 323 324 324 326 328 329 332 333 331 331 333 332 328 326 325 325 325 324 327 331 329 326 327 325 325 326 324 322 321 320 319 316 316 314 310 306
313 313 312 312 313 313 313 313 313 312 312 312 312 313 311 310 312 312 309 310 311 312 312 312 313 313 313 313 313 313 312 312 312 312 312 311 311 312 312 312 312 313 313 313 313 314 314 315 316 316 316 316 316 317 319 320 322 323 323 324 325 324 325 325 325 325 326 331 333 330 327 328 329 326 324 324 324 325 323 321 323 324 325 327 327 325 325 324 323 321 321 321 318 317 316 313 309
312 312 313 313 311 312 313 312 312 312 313 312 311 311 310 310 312 312 309 310 311 312 312 311 312 313 312 312 312 312 312 312 311 310 311 311 311 311 311 312 312 312 312 312 313 313 313 314 315 316 316 316 317 317 319 321 323 323 324 325 325 326 326 326 326 325 326 328 330 328 326 325 325 326 325 324 322 323 326 326 326 326 327 328 327 325 325 324 322 321 322 321 319 318 317 315 312
312 311 314 316 314 314 313 310 311 311 314 312 311 313 315 314 312 309 308 310 312 311 312 311 312 312 311 311 311 311 311 310 310 310 310 310 310 310 311 311 311 312 312 312 313 312 313 313 314 316 316 317 317 317 319 321 323 324 325 325 326 326 326 326 325 325 326 325 326 326 326 326 326 326 326 325 325 326 327 328 328 328 327 326 326 325 324 323 322 322 323 321 321 320 319 317 315
313 310 312 316 316 319 313 308 311 312 313 312 312 318 326 323 311 307 309 309 311 311 310 310 310 310 310 310 310 310 309 309 309 309 309 309 309 310 310 311 311 312 312 313 313 313 313 313 313 315 316 316 317 318 320 321 323 324 325 325 325 326 327 327 327 325 325 325 325 325 324 325 324 323 324 325 325 324 324 324 323 324 325 325 325 325 324 324 324 323 322 321 322 321 320 319 317
315 310 314 318 315 323 318 308 311 314 312 311 312 318 326 325 311 307 310 308 310 310 308 308 308 309 308 308 308 308 309 308 308 308 308 308 309 309 310 311 312 312 314 314 314 315 314 314 314 315 315 316 317 319 322 323 324 325 325 325 325 325 327 329 329 328 328 328 328 328 327 327 326 325 325 325 325 325 325 324 323 323 324 325 324 325 325 325 324 323 322 322 322 321 321 320 319
322 313 321 323 315 325 323 308 309 313 312 309 313 319 323 320 309 308 310 309 311 309 306 307 306 307 307 307 307 307 307 306 306 307 307 308 308 309 310 311 312 313 314 316 317 318 317 317 317 317 317 318 319 320 322 324 324 325 325 325 324 325 326 327 328 328 329 329 328 329 330 329 329 328 327 328 328 327 326 325 324 324 325 325 324 323 324 323 323 323 322 322 321 321 321 321 320
325 316 321 326 318 321 321 312 308 309 311 310 312 317 320 316 306 307 311 309 311 308 304 305 305 305 305 305 306 305 305 305 306 307 307 308 308 309 310 310 312 312 314 315 317 318 318 319 319 318 319 319 320 321 323 324 324 324 325 325 325 326 326 326 326 326 327 327 326 327 328 328 328 327 327 328 327 326 325 324 323 324 324 324 324 324 324 324 324 323 322 321 321 320 320 320 320
325 316 316 322 319 317 319 319 311 308 312 313 312 314 317 316 307 307 310 309 310 307 303 304 303 304 304 304 305 304 305 305 306 306 307 308 308 309 310 310 311 312 313 314 315 316 317 318 318 318 319 320 320 321 322 323 323 324 324 324 324 325 325 325 325 325 326 326 325 325 325 325 324 324 325 325 324 324 325 324 324 324 323 324 324 324 324 323 324 323 322 322 322 320 319 319 319
326 321 318 320 318 316 318 319 313 312 316 315 315 315 316 317 310 306 308 308 309 305 302 302 302 302 303 303 303 304 304 305 305 306 306 307 308 309 309 310 310 311 311 312 313 314 315 316 318 318 318 319 320 320 321 322 322 322 323 322 322 322 322 323 323 322 322 323 323 323 324 324 323 324 324 324 324 325 325 325 325 324 323 323 323 322 322 322 323 323 323 323 323 321 320 320 318
324 326 325 324 321 319 318 318 313 311 315 317 316 317 318 318 314 306 305 306 306 302 301 301 301 301 301 301 302 302 303 304 305 305 306 307 308 309 309 309 310 310 310 310 311 311 312 314 315 316 318 319 320 320 321 321 321 321 321 321 321 321 320 320 321 320 320 321 321 322 323 323 323 323 323 323 323 323 323 323 323 322 322 321 322 323 322 322 322 322 322 322 321 320 319 318 318
319 321 323 323 321 319 316 317 314 308 313 319 315 316 318 316 313 306 303 304 303 301 301 300 300 300 299 300 300 301 302 303 304 305 306 307 307 308 308 308 308 308 308 308 309 309 310 311 312 313 316 318 319 319 320 320 319 319 319 319 320 320 319 318 319 319 320 320 320 320 320 320 320 321 321 320 320 320 321 322 321 321 321 320 321 321 321 320 321 320 321 321 320 319 318 317 317
314 316 317 318 319 317 314 314 314 308 312 318 314 314 317 315 310 304 302 303 302 300 300 299 299 298 298 299 299 300 301 301 303 304 305 306 307 307 306 306 307 307 307 307 307 307 308 309 309 310 312 313 313 314 314 315 315 315 315 316 317 317 316 317 317 317 317 318 318 317 317 317 318 319 319 319 319 319 319 319 318 318 319 319 319 319 319 319 319 319 319 319 318 318 317 317 316
313 315 314 316 317 317 317 314 312 310 312 318 317 315 317 314 306 302 300 301 300 299 299 299 298 298 298 299 299 300 300 302 303 304 305 305 305 306 306 306 306 306 306 306 306 306 306 307 307 307 307 308 308 308 308 308 308 309 310 311 311 312 312 312 312 312 312 312 312 312 313 313 313 315 316 316 317 317 317 317 317 317 318 319 319 318 318 317 317 317 317 317 317 316 316 316 316
314 315 315 318 316 317 322 318 314 313 311 315 317 314 317 314 306 302 300 299 299 298 299 298 298 299 298 299 299 300 301 302 303 304 304 305 305 305 305 305 305 305 305 305 305 305 305 305 305 305 305 305 306 306 306 306 306 306 306 307 307 307 307 306 306 307 306 306 306 306 306 306 307 308 308 309 309 310 311 311 312 313 313 314 315 316 316 316 316 315 315 314 314 314 314 314 314
317 317 316 317 317 318 321 318 315 317 314 313 313 316 322 319 312 308 302 299 299 298 298 298 298 298 298 299 299 300 301 302 302 303 304 304 304 304 304 304 304 304 304 304 304 304 303 304 304 304 304 304 304 304 304 305 305 305 305 306 305 305 305 304 305 304 304 304 304 304 303 303 303 303 304 304 304 304 305 305 306 306 307 307 308 310 311 311 312 312 312 311 312 313 313 312 312
320 321 318 317 319 319 318 316 315 319 321 315 311 320 330 325 318 311 304 302 301 299 298 297 297 298 298 299 299 300 301 301 302 303 304 304 304 304 304 304 304 304 304 303 303 303 303 303 303 303 303 303 303 303 303 303 303 304 304 304 304 304 304 303 303 303 303 303 303 303 303 303 303 303 303 303 303 303 303 303 303 303 303 303 303 304 304 305 306 307 307 308 309 310 310 311 311
321 320 318 315 315 316 316 315 316 321 323 313 309 317 327 328 323 312 304 305 303 299 298 297 297 298 298 299 299 299 300 301 302 303 303 303 303 303 303 303 303 303 303 303 302 302 302 303 303 303 303 302 302 302 302 302 302 302 303 303 303 303 303 302 302 302 302 302 302 302 302 303 302 302 302 302 302 302 302 302 302 302 302 302 301 301 301 302 302 302 303 304 305 306 307 308 308
323 318 317 318 316 317 318 317 317 320 319 316 315 315 317 323 321 308 304 307 304 301 300 298 297 298 298 298 299 299 300 300 301 302 302 303 303 303 303 303 303 303 303 302 302 302 302 302 302 302 302 302 302 302 302 302 302 302 302 302 302 302 301 301 300 300 300 300 301 301 301 301 301 301 301 301 301 301 301 301 300 300 300 300 300 300 300 300 300 300 300 300 301 302 303 303 304
322 314 314 318 318 319 320 318 318 316 314 320 323 316 315 323 320 307 303 308 307 304 303 300 297 297 298 298 299 299 299 300 301 301 302 302 302 303 303 303 302 302 302 302 302 302 302 301 302 301 301 301 301 301 301 301 301 301 301 301 301 301 300 300 299 299 299 299 300 299 299 299 299 299 299 299 299 299 299 299 299 299 299 298 298 298 298 298 298 299 299 299 299 299 300 300 301
313 308 312 315 315 318 319 320 320 315 314 322 325 318 316 324 324 313 307 311 311 307 303 300 298 297 298 298 298 299 299 300 300 301 302 302 302 302 302 302 302 302 302 302 301 301 301 301 301 301 301 301 301 300 300 300 300 300 300 300 300 299 299 298 298 298 298 298 298 298 297 297 297 297 296 296 296 297 296 296 296 296 295 295 295 295 295 295 295 295 295 295 296 296 297 297 298
306 311 318 317 317 318 319 320 318 315 319 323 321 317 315 320 324 319 312 313 312 308 304 300 298 297 298 298 298 298 299 299 300 301 301 302 302 302 302 302 301 301 301 301 301 300 300 300 300 300 300 300 300 299 299 299 299 299 299 299 299 298 297 297 297 297 296 296 296 296 295 295 295 294 294 294 294 294 294 293 293 293 292 292 292 292 292 292 291 291 291 291 292 292 293 293 294
308 320 322 318 320 317 318 321 318 318 325 322 314 313 313 317 324 322 314 311 308 306 305 301 298 297 298 298 298 298 299 299 300 301 301 301 302 301 301 301 301 301 301 301 300 300 300 300 299 299 299 299 299 298 299 299 298 299 298 298 298 297 297 297 297 296 295 295 295 294 293 293 293 293 293 293 293 293 292 292 292 292 291 291 291 291 290 290 290 290 290 290 290 290 290 290 290
313 321 320 320 322 319 320 322 318 319 321 315 311 313 313 315 320 318 315 311 304 302 302 300 298 298 298 298 298 298 298 299 300 301 301 301 301 301 301 301 301 300 300 300 300 300 299 299 299 299 299 298 298 298 298 298 298 298 297 297 297 296 296 296 295 295 294 294 293 293 293 293 292 292 292 292 291 291 291 291 291 291 290 290 290 290 290 290 290 289 289 289 289 289 289 289 289
314 318 320 322 322 322 324 321 316 318 317 310 309 312 314 316 316 314 313 307 300 299 300 300 299 299 299 299 298 298 298 299 300 300 301 301 301 301 301 301 300 300 300 299 299 299 299 298 298 298 298 297 297 297 297 297 297 297 296 296 296 295 295 295 295 294 293 293 293 292 292 292 291 291 291 290 290 290 290 290 290 290 290 289 289 289 289 289 289 289 289 289 289 289 289 289 289
312 316 317 320 323 325 325 322 321 322 319 312 308 312 320 321 313 306 303 299 296 298 300 300 300 299 299 298 297 298 298 299 299 300 301 301 301 301 300 300 300 300 299 299 299 298 298 298 298 298 297 297 296 296 296 296 296 296 295 295 295 294 294 294 293 293 292 292 292 292 292 291 291 291 290 290 290 290 290 289 289 289 289 289 289 289 289 289 289 289 289 289 289 289 289 288 288
312 312 315 317 321 323 319 316 318 318 317 315 312 315 321 316 307 299 298 297 296 298 298 299 299 298 298 298 297 298 299 299 299 299 300 301 300 301 300 300 299 299 299 298 298 298 297 297 297 297 297 296 296 296 296 295 295 295 294 294 294 293 293 292 292 292 292 292 291 291 291 291 291 291 291 291 291 290 290 290 290 290 289 289 289 289 289 288 288 288 288 288 288 288 288 288 288
313 311 317 317 313 319 320 313 310 311 316 318 315 317 318 312 308 302 298 299 298 297 297 297 298 297 297 297 297 298 299 299 299 300 300 300 300 300 300 299 299 299 298 298 297 297 296 296 296 296 296 295 295 295 294 294 294 293 293 293 292 292 292 292 291 291 291 291 291 290 290 290 290 290 290 290 290 290 290 290 290 290 290 289 289 289 288 288 288 288 288 288 288 288 288 288 288
316 315 318 314 310 316 320 317 316 315 318 319 315 316 318 316 315 307 301 304 303 298 296 296 296 296 296 297 298 298 299 298 299 299 299 300 300 300 299 299 298 298 297 297 297 296 296 296 295 295 294 294 294 293 293 292 292 292 292 291 291 291 291 290 290 290 290 290 290 290 290 289 289 289 289 289 289 289 289 289 289 289 289 289 289 288 288 288 288 288 288 288 288 288 288 288 288
313 314 312 312 316 318 317 317 321 319 319 321 317 314 314 316 317 312 309 313 310 301 297 296 295 295 296 297 298 298 298 298 298 298 299 300 299 299 299 298 298 297 297 296 296 296 295 295 294 294 293 293 292 292 291 291 291 291 290 290 290 290 290 290 290 290 290 290 289 289 289 289 289 289 288 288 288 288 288 288 287 287 287 287 287 287 287 287 287 287 287 288 287 288 288 288 288
307 309 308 311 316 318 318 316 318 319 319 321 319 316 315 315 316 317 316 316 310 301 298 297 296 296 296 297 297 297 298 298 298 299 299 299 299 299 298 298 298 297 296 296 295 295 295 294 293 292 292 291 291 290 290 290 290 290 290 290 290 290 290 290 290 290 289 289 289 289 288 288 288 288 288 287 287 287 287 287 287 286 286 286 286 287 287 287 287 287 287 287 287 287 287 287 287
311 312 312 313 313 314 316 314 314 318 321 322 321 317 317 316 313 315 316 313 305 301 299 298 296 296 297 297 298 298 298 299 300 300 300 299 299 298 298 297 296 296 296 295 294 294 293 292 292 291 290 290 290 290 289 289 290 290 290 290 290 290 290 289 289 289 289 288 288 288 288 288 287 287 287 287 287 287 286 286 286 286 286 287 286 287 287 287 287 287 287 287 287 287 287 287 287
313 313 314 314 314 314 316 315 313 316 317 321 321 317 318 316 308 309 313 309 302 299 299 297 297 297 297 297 298 299 299 300 301 300 300 299 299 298 297 297 296 296 295 294 293 293 292 291 291 290 290 290 289 289 289 289 290 290 290 290 290 289 289 289 289 289 288 288 288 288 288 287 287 287 287 287 286 286 286 286 286 286 286 286 286 286 286 287 287 287 287 287 287 287 287 287 287
Wind_Speed
3 4 4 3 4 4 4 3 1 2 4 3 2 1 2 3 1 1 3 2 1 1 1 0 1 4 1 1 2 3 3 4 3 2 1 4 6 7 6 4 1 2 3 6 9 13 15 16 16 15 15 15 15 14 14 14 14 13 13 13 12 11 10 10 9 9 10 9 8 6 5 4 3 3 2 1 1 1 2 1 1 1 3 3 2 2 2 3 3 2 3 2 2 2 1 1 2
2 2 2 2 3 4 2 1 2 3 5 3 2 2 3 3 1 3 4 3 1 2 1 0 1 3 1 1 1 0 2 3 3 2 1 4 5 6 6 5 2 1 3 5 7 10 13 15 15 15 14 14 14 13 13 13 14 14 14 13 13 12 12 11 10 10 10 8 7 6 4 3 2 2 2 2 2 3 3 2 2 2 2 2 2 3 3 3 3 3 2 2 3 3 3 2 2
3 2 2 1 2 3 0 2 2 2 5 3 3 4 2 0 3 6 7 4 2 4 2 1 1 2 1 1 1 1 1 3 3 3 2 4 5 6 6 6 4 1 2 4 5 8 11 13 15 15 14 14 14 13 12 12 13 13 13 12 12 12 12 12 10 9 9 8 8 7 5 5 4 3 3 3 4 4 3 3 3 3 3 3 3 4 4 4 5 4 3 3 4 5 5 4 3
4 3 4 2 1 2 3 4 2 4 3 2 1 3 2 3 5 7 5 4 3 3 2 3 1 1 0 2 1 1 2 2 2 1 2 5 4 5 6 6 5 2 1 3 4 6 9 12 14 14 14 14 13 13 12 12 12 11 11 10 10 11 11 11 10 10 10 9 9 8 7 6 5 4 4 4 5 6 5 3 3 4 3 4 4 4 5 6 6 5 4 4 5 6 7 7 6
4 4 5 3 0 1 3 3 2 4 3 4 2 3 4 6 4 5 5 3 1 2 3 3 2 2 2 1 1 1 2 2 2 1 2 4 3 5 6 6 5 3 1 2 3 5 7 10 13 14 14 14 14 13 13 12 11 10 10 10 9 10 10 10 10 10 10 10 9 8 7 6 5 5 5 5 6 6 4 2 3 4 4 4 5 5 6 7 7 6 6 5 5 8 10 10 8
5 4 6 4 3 2 2 3 2 1 4 5 3 3 5 5 3 5 5 1 0 2 3 2 2 3 1 1 2 1 3 3 4 3 2 3 3 5 6 7 6 4 2 2 3 4 5 8 11 13 14 14 14 13 13 12 11 10 9 9 9 9 9 9 9 9 10 10 10 9 8 7 6 6 6 6 6 5 3 3 3 4 6 6 6 6 6 9 9 9 9 7 8 11 12 11 9
6 4 5 3 3 4 3 3 3 1 2 4 2 3 5 4 4 4 4 1 0 2 2 1 1 2 1 2 3 2 5 5 5 4 3 2 2 4 6 7 6 5 4 2 2 3 5 7 9 12 13 14 14 13 13 12 11 11 10 9 9 9 9 9 8 9 10 10 11 10 9 8 6 5 6 8 7 5 4 3 3 4 6 6 5 6 7 10 11 11 11 9 10 12 11 9 8
7 5 3 3 2 5 4 3 3 2 0 3 3 5 6 3 3 1 2 0 1 2 2 1 1 2 1 4 5 4 6 6 7 4 2 1 0 3 4 6 6 6 5 3 2 4 4 6 8 10 12 13 14 14 13 12 12 11 10 10 9 9 9 9 9 10 10 11 11 11 10 8 6 6 7 9 8 7 6 4 3 4 6 6 6 7 8 10 12 14 12 9 10 10 8 8 8
8 5 2 3 2 3 3 2 2 2 3 3 4 6 5 2 2 0 2 1 1 1 4 3 1 3 3 5 5 4 6 7 8 4 1 1 1 2 2 5 7 7 6 3 3 4 5 5 7 9 11 12 14 14 13 12 12 12 11 10 10 10 10 10 10 10 11 12 12 11 11 9 7 7 8 9 9 9 7 5 4 4 5 5 6 7 9 11 13 16 15 12 10 10 9 7 7
7 5 2 3 3 3 3 1 1 2 4 4 6 7 4 1 1 1 1 2 2 1 4 4 2 3 5 5 4 5 7 7 9 6 2 2 2 3 1 3 6 8 8 5 3 4 5 5 6 8 10 12 13 14 13 13 13 13 12 11 11 11 11 11 11 11 12 12 12 12 11 9 8 7 8 9 9 9 8 8 7 4 4 5 6 8 10 12 14 16 16 14 12 11 9 7 6
4 5 3 4 4 2 1 2 3 3 5 5 5 4 1 1 1 1 0 2 3 3 3 4 2 3 5 5 4 5 8 10 11 9 5 3 4 4 3 1 2 6 8 6 5 5 5 6 7 8 9 11 13 14 14 13 13 13 13 12 11 11 11 11 11 12 12 12 12 12 11 10 9 8 8 9 9 9 8 9 9 6 6 6 7 9 11 13 15 15 13 13 11 9 7 5 5
2 2 4 4 3 2 3 2 4 5 6 4 2 3 4 2 1 0 1 2 4 5 3 4 2 3 4 4 4 3 7 12 12 12 8 6 7 6 5 4 3 4 6 7 5 5 6 6 7 8 9 11 12 14 14 14 14 14 14 13 12 12 12 11 11 11 12 12 12 12 11 10 9 8 9 10 11 10 8 9 10 9 8 8 9 11 12 12 13 12 10 9 7 6 5 4 3
2 2 4 3 2 3 3 1 4 4 5 3 1 3 5 3 2 2 2 2 3 2 3 3 2 3 3 5 5 1 7 16 14 14 12 9 7 7 7 7 6 5 6 6 5 4 6 7 7 8 9 11 12 13 14 14 15 15 15 14 13 13 12 12 12 12 12 12 12 12 11 10 10 10 10 10 11 12 11 11 11 11 11 10 10 12 14 13 12 11 9 7 6 5 4 3 2
3 3 4 3 1 2 3 1 2 2 2 3 3 4 5 2 3 2 0 2 2 1 4 3 2 3 3 4 6 6 13 17 16 16 13 9 7 6 7 8 8 8 7 7 6 5 5 7 8 9 9 11 12 14 14 15 15 15 16 15 14 14 13 12 13 12 12 12 12 12 12 11 11 11 11 11 12 12 12 12 11 12 12 12 12 13 14 14 14 12 10 7 6 5 4 3 2
4 3 5 4 2 1 2 0 1 4 1 3 4 7 6 1 3 4 1 2 1 2 4 2 2 5 5 5 8 13 17 17 16 15 12 10 8 6 5 7 9 10 9 9 8 7 6 6 8 9 10 11 12 14 15 15 15 15 16 16 15 15 14 13 13 13 13 13 13 13 13 13 13 13 12 13 13 14 13 13 13 12 12 13 13 13 14 14 13 11 9 7 5 5 4 4 3
5 3 5 3 1 0 2 2 2 4 2 3 5 9 5 1 5 6 5 6 5 6 4 4 6 8 9 9 12 16 16 15 14 12 11 10 9 8 6 7 9 11 10 10 9 8 7 7 8 9 11 11 12 13 14 15 16 16 16 16 16 16 16 15 14 14 14 14 14 14 14 14 14 15 14 14 15 16 15 14 14 13 13 13 13 14 15 13 11 9 7 6 5 5 5 5 4
4 3 5 3 1 1 2 3 3 2 3 5 7 10 5 3 6 7 10 10 8 7 7 9 9 6 8 10 11 13 13 12 11 10 9 9 9 8 8 8 10 11 12 12 11 10 9 9 9 10 11 11 12 12 13 15 16 16 17 17 17 16 16 16 15 15 15 14 14 14 15 15 15 15 15 15 16 17 17 16 16 15 14 13 13 14 14 13 11 9 7 6 6 6 6 6 6
4 3 3 2 1 2 4 6 5 3 3 4 7 9 4 4 7 9 10 8 9 11 12 10 5 4 7 11 11 11 11 10 9 8 7 7 8 8 8 8 9 11 11 12 13 12 12 11 10 10 11 11 12 13 13 14 15 16 17 17 17 17 17 17 16 16 16 15 15 15 15 15 15 15 16 16 17 17 17 16 16 16 15 15 14 14 13 13 12 10 8 7 7 7 7 7 7
4 3 3 2 5 4 4 6 6 3 3 5 6 8 4 6 8 8 6 7 10 12 14 7 5 10 12 12 11 9 8 7 7 7 6 7 7 7 7 7 8 9 10 11 12 12 12 12 12 12 12 12 12 13 14 14 14 15 16 17 17 18 18 17 16 16 17 17 16 16 16 16 15 15 16 16 16 16 16 16 16 16 17 16 15 13 12 12 12 10 8 7 8 9 8 8 8
2 3 2 5 6 4 5 6 6 5 7 7 6 6 7 9 8 5 3 8 11 8 8 4 6 16 16 12 10 7 6 6 6 6 6 6 7 8 8 8 8 8 9 10 11 12 12 12 12 12 12 12 12 13 13 14 14 14 15 16 17 18 18 18 17 17 18 18 17 17 17 17 16 16 16 16 16 16 16 15 16 17 18 17 15 13 12 12 12 11 9 7 8 10 9 9 9
1 3 3 5 4 2 6 5 5 6 6 6 6 7 9 9 6 5 2 6 10 5 6 7 10 16 13 11 9 8 8 7 7 7 6 6 6 7 8 9 9 9 10 10 11 11 12 12 11 11 11 11 11 11 11 12 13 14 15 15 16 17 18 19 18 18 18 18 18 17 18 18 17 16 16 16 16 16 15 16 18 18 18 17 15 14 14 13 13 12 10 8 7 10 11 10 11
2 3 4 4 5 2 6 4 3 4 5 7 7 7 8 8 6 6 3 3 7 6 11 14 13 9 8 9 8 9 9 9 10 9 8 7 6 7 7 8 9 10 11 11 12 12 12 11 10 10 10 9 9 9 9 9 10 12 13 14 15 16 17 18 19 19 20 20 19 18 18 20 20 18 17 17 16 18 17 17 20 19 19 19 17 16 16 15 15 14 13 10 8 10 11 11 12
1 3 4 4 5 5 7 7 6 6 6 8 8 9 10 10 8 8 8 10 10 11 14 13 8 5 5 6 6 8 10 10 11 10 10 9 8 8 8 8 9 10 12 14 15 14 13 11 9 9 8 8 8 8 7 7 7 8 9 11 13 14 15 17 19 19 19 19 19 20 19 19 20 20 19 18 18 19 17 17 18 19 21 21 20 17 15 16 17 16 15 14 11 10 11 13 13
2 3 4 4 6 9 10 11 11 10 10 13 12 13 14 11 7 8 9 9 10 9 6 4 4 4 4 3 5 8 10 11 10 10 10 10 10 10 10 10 11 12 13 14 15 14 12 10 9 8 8 7 7 7 7 6 6 6 7 8 9 11 13 15 18 17 16 18 18 20 19 19 22 22 21 19 19 18 17 19 18 19 21 22 22 18 15 18 19 17 17 17 15 12 12 13 15
3 4 5 3 7 10 14 16 16 16 15 16 14 14 17 13 8 8 8 7 3 1 1 2 2 3 4 4 7 7 8 8 8 8 7 8 9 10 11 11 10 11 11 11 12 12 10 9 8 8 8 8 7 7 6 6 5 5 5 6 6 7 9 11 16 17 17 18 19 19 20 21 23 22 22 20 17 16 17 21 19 18 19 21 22 18 17 21 21 19 18 18 17 15 13 14 16
3 5 5 6 10 14 17 19 18 15 13 12 9 13 16 10 6 5 4 1 3 4 4 4 2 2 6 8 8 7 7 7 7 7 7 7 7 8 9 10 10 10 10 9 9 9 8 6 6 8 9 9 9 7 6 5 4 4 4 5 6 5 6 7 11 14 15 16 16 18 20 20 19 19 20 18 17 18 18 19 19 20 20 21 21 19 20 22 22 20 18 18 17 15 14 14 16
2 3 7 10 14 17 17 18 19 16 14 12 9 11 11 4 2 0 5 6 4 3 4 5 1 3 5 7 7 8 9 9 8 7 7 7 7 6 7 8 9 9 9 8 8 8 7 6 4 6 8 9 9 8 7 5 4 4 4 4 5 5 5 5 7 8 11 14 14 16 18 17 17 17 18 16 16 18 17 16 18 19 19 19 20 21 22 23 24 22 19 18 17 15 15 15 16
3 5 8 11 13 16 16 15 15 10 8 8 8 7 6 1 2 2 6 6 2 3 5 5 2 3 3 4 5 6 8 9 10 8 7 6 6 7 7 6 7 8 9 9 9 9 8 6 4 3 5 8 9 9 8 7 6 4 3 3 3 4 3 4 6 6 7 10 11 12 12 11 12 13 14 13 12 14 16 17 18 16 16 19 20 21 21 22 22 20 18 18 17 15 15 15 16
3 5 5 9 11 11 11 7 3 1 1 3 2 3 5 2 2 4 5 4 3 3 6 5 3 2 1 2 4 5 6 8 8 9 9 9 8 8 8 8 9 9 10 10 10 10 8 6 4 2 3 6 8 9 9 9 7 5 4 3 2 2 2 2 3 3 2 4 5 6 6 7 8 8 9 10 10 13 16 18 18 15 15 18 19 19 20 19 17 16 17 17 15 15 15 15 16
3 3 2 5 8 7 5 1 1 1 2 2 3 2 6 5 2 7 6 3 1 5 7 5 4 3 1 2 3 4 5 7 7 8 8 8 8 9 9 9 9 10 10 10 9 8 6 5 3 2 4 6 7 8 9 9 8 7 5 4 2 2 3 3 3 2 1 2 2 2 3 4 7 6 6 8 8 10 13 15 16 14 14 15 15 16 17 16 15 15 15 15 15 15 15 15 16
1 2 2 3 2 5 5 3 1 1 2 3 5 1 6 7 3 9 9 2 2 8 9 6 5 3 2 2 3 4 5 6 6 6 6 7 8 8 8 8 8 8 8 8 8 7 4 3 2 3 4 6 7 7 7 7 7 6 5 4 4 5 3 2 5 4 5 8 6 7 9 7 8 9 6 8 9 10 12 13 12 11 10 11 12 13 14 14 14 13 14 14 15 16 16 16 16
2 1 3 3 2 6 8 4 1 1 1 3 4 2 6 7 3 12 13 5 4 10 11 7 6 5 4 3 4 4 4 5 5 5 6 7 8 8 8 8 9 9 9 9 9 7 5 3 2 1 2 4 4 4 5 5 5 5 5 4 4 5 5 5 7 8 8 10 9 10 13 12 12 11 9 11 12 11 12 10 8 8 9 10 10 10 12 12 12 12 13 14 16 17 17 17 17
3 1 4 3 3 3 6 4 2 2 1 3 2 2 5 3 5 13 14 7 7 11 11 8 7 5 5 4 3 3 3 4 4 5 7 7 8 8 9 9 9 9 9 9 8 7 7 7 6 4 4 3 3 4 4 4 4 4 6 5 4 3 4 5 4 5 5 6 7 8 8 9 9 8 8 10 10 9 9 9 8 8 10 10 10 12 12 13 13 13 13 13 15 17 18 19 19
3 0 3 4 3 2 3 3 4 5 3 2 2 1 6 7 4 16 14 7 7 11 11 8 7 6 6 5 3 3 3 4 6 7 8 8 8 8 9 9 9 8 8 8 7 7 8 8 8 8 8 8 7 7 6 6 5 4 5 5 5 4 3 3 3 4 4 4 7 7 5 6 7 8 8 8 9 10 11 12 12 12 13 12 13 15 13 13 14 15 15 13 13 15 17 19 20
4 3 3 3 3 4 4 4 2 5 4 2 1 2 9 10 6 16 13 6 7 11 10 8 8 7 7 6 6 6 6 7 8 9 9 8 8 8 8 8 8 7 7 7 7 7 7 8 9 9 10 11 11 10 10 9 7 6 6 4 3 4 2 0 2 2 3 3 2 2 2 3 4 6 8 8 8 11 11 12 13 14 13 12 12 15 15 15 16 17 18 16 14 15 16 16 17
6 5 5 4 4 5 5 5 4 1 3 3 4 5 8 9 5 11 10 8 10 11 9 8 9 8 8 8 9 9 9 10 9 8 7 7 7 8 8 8 8 8 8 8 7 7 8 9 9 9 12 12 11 10 10 8 7 8 7 4 5 6 4 3 3 3 1 1 2 4 4 4 4 5 7 9 9 10 11 11 13 15 16 14 14 17 17 16 15 15 16 16 16 15 14 14 15
5 4 4 4 5 5 4 4 5 1 1 5 5 5 8 6 3 6 5 8 10 10 9 9 9 9 10 11 12 12 12 12 9 8 8 9 9 10 11 12 13 13 14 14 13 13 13 12 12 12 12 10 8 8 7 5 5 5 5 4 5 5 3 1 2 3 3 2 3 5 6 7 7 7 8 10 10 11 11 10 11 12 13 12 11 13 16 16 16 15 15 17 16 15 15 15 15
3 4 3 3 4 6 5 3 5 1 2 5 2 3 8 4 2 5 4 7 7 6 7 8 8 10 11 12 13 13 13 13 12 12 13 15 16 17 19 20 20 22 22 22 22 22 21 20 19 18 16 13 12 11 9 8 8 7 6 6 4 2 2 1 2 3 3 4 6 7 8 9 9 9 9 10 10 11 12 12 12 12 12 13 13 12 13 13 14 14 15 16 16 17 16 15 16
2 3 2 4 3 4 6 3 4 2 2 4 3 3 7 1 4 5 7 7 6 6 7 7 9 10 12 13 14 15 16 17 18 20 21 22 23 24 24 25 26 27 27 27 27 27 27 27 26 25 23 21 20 19 17 16 15 13 12 11 8 6 7 6 4 4 3 3 3 4 5 6 7 8 10 12 13 13 14 15 16 16 16 17 17 17 16 15 15 16 16 17 16 16 16 16 18
3 3 3 4 2 0 3 3 4 2 1 1 2 3 6 1 4 5 7 8 10 9 8 9 9 11 12 14 15 17 19 22 23 25 26 26 26 26 26 27 27 27 27 28 28 28 29 29 29 28 27 26 24 23 22 20 18 17 16 15 13 12 13 11 8 8 7 7 6 6 6 6 6 5 6 8 10 11 12 13 14 14 15 16 17 18 20 20 21 21 21 21 20 19 19 19 19
3 5 6 4 3 5 6 3 4 3 3 1 3 3 6 3 1 1 4 6 8 8 9 9 9 10 12 13 16 18 20 23 25 26 27 27 27 26 27 27 26 26 26 26 26 26 27 28 27 27 26 25 24 23 22 20 18 17 17 16 15 15 14 12 11 12 12 11 10 11 11 11 9 9 8 8 8 8 9 9 10 10 11 12 12 13 15 17 18 20 21 21 22 22 21 21 21
4 5 9 9 7 7 5 3 5 3 4 3 2 2 5 4 2 3 2 2 4 4 7 8 7 9 11 13 16 18 20 23 25 27 27 27 26 26 26 25 25 25 25 24 24 24 24 25 25 24 24 24 23 22 20 18 17 16 15 15 14 13 12 13 14 15 14 13 13 12 12 12 11 10 10 10 10 10 10 10 10 10 10 11 11 11 11 11 11 13 14 16 18 20 21 21 21
2 4 8 9 7 4 3 2 2 0 3 2 2 2 4 6 4 3 3 2 3 2 4 5 6 8 11 13 16 17 20 22 24 26 26 26 25 24 24 24 24 24 23 22 21 21 21 22 22 22 22 22 20 19 17 15 14 14 13 13 12 12 13 15 16 14 14 14 12 11 11 11 11 11 11 11 11 11 11 11 11 11 11 11 12 12 12 11 11 11 12 12 14 16 18 19 20
3 4 5 6 6 6 5 5 4 2 3 4 3 2 2 4 4 2 3 3 1 0 0 1 5 8 10 13 15 17 19 21 24 25 25 24 23 23 23 22 22 22 21 19 18 18 18 19 20 19 19 19 18 16 14 13 12 12 12 12 13 14 15 16 14 13 13 11 10 10 11 11 11 11 11 12 12 12 12 13 13 13 12 13 13 13 14 14 13 12 12 12 12 13 15 16 17
4 3 6 6 6 6 5 6 3 1 1 4 4 1 2 5 4 2 2 2 3 4 5 5 7 10 12 14 16 18 19 21 23 24 24 23 22 21 21 20 20 19 18 17 17 16 16 16 17 17 17 17 16 13 12 12 12 12 12 12 13 14 14 13 12 10 10 9 9 10 10 10 11 11 11 12 12 12 13 13 14 14 14 15 15 16 16 15 15 15 14 14 13 14 15 15 16
4 6 7 5 5 5 4 5 4 2 1 5 6 3 2 4 4 2 1 4 6 6 5 6 10 12 13 16 17 18 19 21 22 23 23 22 21 20 19 18 17 17 16 15 15 15 14 13 13 14 15 15 13 11 10 10 11 10 11 11 12 13 12 10 8 8 9 8 8 9 10 11 11 12 12 13 13 13 14 14 15 15 16 16 16 16 16 17 17 18 18 18 17 16 15 15 15
8 7 6 6 6 5 3 2 4 2 2 6 6 4 3 3 5 3 4 4 5 7 5 6 10 14 16 18 19 19 19 21 22 22 22 21 19 18 17 16 15 15 14 13 12 12 12 11 10 12 14 12 10 10 8 8 9 8 10 10 10 10 10 7 6 7 8 8 9 11 11 11 11 12 13 13 13 14 14 15 15 16 16 16 16 17 17 18 19 19 19 18 18 18 17 16 15
6 4 4 4 3 4 4 4 3 1 5 5 3 2 4 4 5 4 5 4 4 7 7 9 13 17 21 22 21 20 20 21 22 22 21 20 19 17 15 14 13 13 12 11 10 10 10 9 8 10 11 10 9 8 7 7 7 7 8 8 7 8 6 5 6 7 8 9 11 11 11 11 11 12 12 13 14 14 15 16 16 16 17 17 18 18 18 18 18 18 19 19 19 19 19 19 18
4 4 5 4 2 2 2 3 1 3 5 3 1 2 3 5 6 5 6 5 4 4 6 12 19 23 25 25 23 22 22 22 22 22 21 19 18 16 14 13 12 11 10 9 9 8 7 8 7 8 9 9 8 7 6 6 6 7 8 7 7 8 7 8 9 10 11 12 12 13 13 13 14 14 15 15 16 16 17 17 17 17 18 19 19 19 20 20 20 20 20 21 20 20 21 21 21
4 5 5 4 2 1 2 3 2 4 4 2 1 1 1 4 4 4 5 4 4 6 7 14 24 29 29 28 25 23 23 22 22 22 21 19 17 15 14 12 11 10 9 8 7 6 6 6 5 5 6 7 6 6 5 5 6 7 7 7 8 8 8 9 10 11 12 13 14 15 16 16 17 18 18 18 18 17 18 18 18 18 18 19 19 20 20 21 22 22 23 23 23 23 23 22 22
4 3 5 4 4 4 4 4 3 4 2 2 2 1 3 4 2 3 4 3 4 6 9 15 23 28 29 28 26 25 24 23 23 22 21 19 17 15 13 12 10 9 8 7 6 5 4 4 4 4 4 5 4 4 5 5 6 6 6 6 7 7 8 8 9 10 11 12 13 14 15 16 17 18 19 20 20 20 20 20 20 20 19 20 20 21 21 22 22 22 23 23 24 25 25 25 25
2 2 4 2 4 4 1 3 5 3 2 3 2 3 4 4 1 3 3 2 1 2 6 14 21 24 26 27 27 27 26 25 24 23 21 19 17 15 13 12 10 9 7 6 5 5 3 2 2 2 2 3 2 2 3 3 4 4 5 5 6 6 7 8 8 9 10 11 12 13 14 15 16 17 18 19 20 21 22 22 23 23 23 23 23 23 23 23 23 24 24 24 25 26 26 27 27
2 2 3 4 3 6 3 2 1 3 1 3 2 3 4 1 2 2 2 2 2 1 5 14 21 24 26 28 30 30 29 27 26 24 22 20 18 16 14 12 10 9 7 6 5 5 4 3 2 1 2 2 2 1 1 1 1 2 2 3 4 4 5 6 7 9 10 11 12 13 14 15 15 16 17 18 19 20 22 23 24 25 26 27 28 28 28 28 27 27 27 27 28 28 28 29 29
5 3 5 3 2 4 3 2 3 3 3 4 1 4 4 1 2 2 2 2 4 3 6 11 17 22 26 30 33 33 30 28 26 24 23 20 18 17 15 13 11 9 8 7 6 6 5 4 4 4 3 3 3 2 1 1 0 1 2 2 3 4 5 7 8 9 10 11 12 13 14 15 16 16 17 18 19 19 20 21 22 23 24 26 28 29 31 32 33 33 33 33 33 33 33 32 32
4 3 3 3 3 2 2 2 2 1 3 4 2 3 4 4 4 2 4 7 8 7 6 8 14 22 28 33 35 33 30 28 27 26 24 22 20 17 15 13 12 10 9 8 7 7 6 6 6 5 4 4 4 3 2 2 2 2 2 3 4 5 6 7 9 10 11 12 13 14 15 16 17 17 18 18 18 18 18 19 19 20 21 23 24 26 28 30 32 34 35 36 37 38 39 39 38
3 2 1 2 2 3 2 2 3 2 2 3 4 3 3 5 6 7 10 11 10 10 9 10 17 26 32 34 35 34 32 30 29 28 26 23 20 18 15 13 12 11 10 9 9 9 8 8 7 7 6 6 5 4 3 3 2 2 3 4 5 7 8 9 10 11 12 13 14 15 15 16 17 17 18 18 18 18 19 20 20 21 22 23 24 26 28 29 31 33 34 36 37 38 40 42 42
3 3 3 2 1 2 1 1 2 3 3 2 3 5 5 4 3 8 9 8 9 12 11 12 20 29 32 33 34 35 34 33 31 29 27 24 21 18 17 15 14 13 12 11 11 10 10 9 9 8 7 6 5 4 4 3 3 4 5 6 7 8 9 10 11 12 13 14 14 15 16 16 17 17 18 19 19 20 22 23 23 24 26 27 28 30 31 32 34 35 36 37 38 39 40 42 43
4 4 5 5 4 3 2 4 1 2 2 4 3 6 7 3 2 4 5 4 7 13 13 14 23 31 33 34 36 37 36 34 32 30 27 24 22 20 19 18 16 15 14 13 13 13 12 11 10 9 8 7 6 5 4 4 5 6 7 8 9 10 11 12 13 14 16 16 17 18 19 19 19 19 20 21 22 23 24 26 27 28 30 31 33 34 35 37 37 38 38 39 39 40 41 42 43
Wind_Direction
302 278 281 298 303 309 320 330 24 11 63 82 335 41 238 230 227 292 290 295 312 295 189 328 151 151 132 137 207 224 200 181 184 114 135 287 335 339 341 354 45 71 115 156 185 191 184 182 183 188 191 193 198 198 201 205 209 217 220 226 226 227 235 246 248 237 234 226 213 204 193 186 170 162 169 212 252 291 298 311 318 116 126 124 146 181 224 260 272 248 237 276 339 4 352 337 324
337 289 308 307 321 336 292 30 82 353 50 75 298 170 266 303 351 243 229 228 201 355 11 57 184 195 211 160 258 247 219 234 244 229 272 318 335 343 347 344 326 104 126 146 178 192 192 187 183 186 188 191 198 199 202 206 209 216 221 226 228 232 238 246 247 234 233 227 214 208 206 199 193 208 231 268 282 295 298 296 268 220 172 144 170 198 219 245 260 263 248 285 337 348 328 308 297
22 359 8 1 341 355 149 52 85 63 70 94 280 245 288 360 231 238 226 236 303 353 351 343 233 200 141 59 335 134 226 267 287 263 297 340 340 1 359 343 334 287 145 144 170 188 196 194 188 187 187 189 196 198 201 207 210 216 220 225 228 232 237 242 241 230 227 220 211 208 207 208 216 233 254 276 292 302 300 291 266 236 205 177 187 212 238 255 268 274 258 285 335 340 327 308 283
38 45 29 6 348 16 76 50 123 112 104 166 312 268 244 185 228 251 263 295 310 341 3 350 348 183 9 356 306 203 311 312 330 273 329 356 353 7 9 358 349 320 184 153 162 183 197 199 196 192 190 190 193 197 200 204 209 214 216 221 227 230 235 239 238 230 222 215 212 213 214 219 228 243 263 284 301 304 295 280 249 227 213 198 202 221 249 264 285 291 253 274 325 330 322 311 293
35 47 23 352 198 70 83 75 110 93 158 181 80 287 250 212 229 278 294 342 306 333 8 356 359 347 329 320 286 230 352 7 14 338 324 360 16 14 16 8 358 342 294 179 162 176 193 201 202 199 196 193 194 197 199 204 209 213 214 219 226 229 231 234 237 232 223 216 216 219 225 233 242 258 269 287 303 300 285 245 216 213 203 200 212 225 245 260 281 295 264 263 295 308 311 307 296
24 26 15 28 99 79 103 96 96 73 212 172 90 292 274 230 225 306 310 17 198 332 360 14 17 337 337 339 311 280 342 349 344 321 307 353 30 21 18 15 9 356 317 221 179 174 187 200 205 204 202 199 200 201 202 206 210 214 215 217 224 227 229 231 234 232 224 220 222 225 232 241 251 266 276 292 308 300 268 219 202 206 202 202 216 228 248 265 274 287 281 276 288 298 304 302 294
12 358 2 55 74 34 99 111 162 182 227 171 129 260 280 257 214 315 331 68 303 343 11 32 24 344 353 355 336 328 338 330 334 316 295 334 41 25 20 26 25 11 346 270 215 186 187 199 204 208 207 205 207 208 207 208 212 216 216 217 224 227 231 235 237 234 228 225 231 235 237 243 251 265 278 291 305 292 252 217 205 209 216 217 227 247 268 281 283 283 283 290 303 307 307 303 298
7 355 10 79 44 24 91 101 217 204 269 224 240 246 275 297 187 285 322 122 352 347 6 349 17 27 263 330 326 333 346 337 342 323 276 286 70 29 28 39 42 30 3 313 249 212 201 203 205 210 211 210 213 215 212 211 216 220 219 219 225 229 234 238 239 238 235 233 238 245 248 249 254 262 272 278 292 287 254 221 211 213 229 235 247 270 284 293 294 292 295 306 316 323 320 312 308
359 353 26 76 72 34 55 35 272 240 270 266 266 259 286 330 153 243 282 266 332 328 355 344 342 4 302 311 318 344 1 345 350 345 270 251 265 11 35 51 48 37 12 334 289 243 222 215 210 211 215 215 218 222 220 217 220 225 224 223 226 231 236 239 241 242 241 241 242 249 254 255 257 261 269 273 282 285 261 233 225 222 237 253 267 281 288 290 291 294 306 318 322 323 319 317 316
350 6 72 78 80 50 27 311 285 261 264 272 271 276 304 354 189 186 244 290 310 332 6 359 324 338 313 310 337 20 29 14 15 17 337 270 287 330 328 58 45 29 14 343 309 273 245 233 222 216 218 219 222 227 228 226 226 229 231 229 230 234 237 240 241 243 244 247 248 251 255 254 257 259 265 270 274 279 264 241 239 244 253 266 279 289 292 292 292 295 304 314 319 315 310 316 319
341 18 72 79 72 76 118 231 287 287 279 297 290 292 349 322 296 180 16 334 315 323 356 8 336 330 321 314 352 44 53 37 24 17 359 307 300 298 283 274 18 15 11 353 322 293 269 251 241 229 223 222 223 228 233 233 233 236 237 237 237 239 241 242 242 244 245 248 251 253 256 254 256 258 261 264 265 270 264 251 251 251 258 275 292 302 303 301 299 301 308 314 315 309 307 320 324
341 9 57 88 106 156 164 211 282 293 305 332 355 32 30 328 333 293 324 343 326 334 351 4 347 342 327 315 351 71 46 18 6 3 352 326 311 297 281 258 277 338 359 359 340 304 282 267 255 245 234 228 226 229 234 235 238 240 243 244 243 245 247 248 246 246 245 248 253 255 257 256 256 255 256 258 260 266 267 264 265 265 269 279 298 310 311 307 303 310 324 325 312 305 312 323 325
53 142 74 91 145 150 147 195 278 311 337 340 298 359 4 327 328 314 283 309 311 345 6 354 342 342 303 304 326 308 357 352 349 350 343 333 320 303 289 265 264 288 327 346 349 322 290 277 266 256 245 236 231 230 233 235 237 240 245 247 247 249 250 251 252 251 250 251 255 256 255 252 252 254 255 256 258 264 266 269 274 278 279 282 297 312 317 314 315 323 331 327 310 303 311 314 303
63 140 93 110 77 124 153 17 315 58 358 294 299 345 350 320 343 344 219 338 317 52 9 335 318 329 308 312 318 309 329 334 334 338 341 343 336 314 295 278 273 276 302 322 330 328 305 288 276 266 254 243 237 233 234 236 236 237 242 246 247 249 250 250 252 253 253 252 253 253 251 249 251 252 252 251 250 255 260 267 273 277 280 285 296 309 316 315 320 325 325 322 309 301 302 293 276
62 93 92 112 37 21 172 350 82 103 127 274 338 346 346 345 13 7 21 20 355 347 345 314 311 315 307 307 309 315 320 322 327 333 339 343 343 337 307 286 278 276 290 303 308 312 307 296 286 278 267 255 244 237 237 237 238 236 238 243 245 248 250 249 249 252 254 254 252 249 247 246 249 250 248 247 246 250 257 266 271 275 281 287 297 307 310 311 317 320 320 319 305 300 296 276 268
56 62 74 87 56 52 161 172 118 97 221 251 341 351 11 41 5 5 342 331 304 303 305 291 305 299 299 306 313 320 321 321 327 329 333 336 336 338 319 293 277 272 277 286 292 294 293 292 291 288 280 271 258 247 241 240 240 240 240 242 243 246 249 249 248 249 251 253 252 250 247 245 246 247 246 247 248 249 253 262 268 273 279 286 297 304 306 309 313 316 318 312 300 296 287 272 266
34 48 68 55 97 169 182 183 161 121 265 282 341 357 19 331 339 342 323 314 298 290 287 295 303 299 313 325 326 322 320 319 316 315 326 327 325 326 316 303 289 281 282 287 292 291 289 287 286 287 285 281 272 262 252 245 242 242 242 242 243 245 247 248 247 248 249 249 250 248 248 247 247 248 247 248 249 250 253 256 262 271 275 281 294 300 305 311 311 314 316 307 300 289 278 272 267
24 89 83 16 175 181 179 184 190 162 286 289 332 345 351 316 323 329 320 304 304 304 302 310 323 344 342 334 327 319 317 317 313 308 311 314 315 316 311 305 297 291 288 289 291 291 288 284 283 281 282 282 278 273 264 256 249 245 243 243 244 244 245 246 246 247 247 247 249 249 248 248 246 247 248 248 249 251 254 253 257 266 270 276 286 293 305 314 313 310 313 312 304 286 274 272 272
57 111 69 268 202 208 206 193 194 183 289 282 307 324 310 293 309 327 317 298 314 313 312 331 4 347 344 335 326 320 320 326 329 323 312 314 313 310 307 297 292 290 286 285 285 286 285 282 282 280 280 280 277 274 271 267 261 254 248 246 246 245 244 243 244 245 246 249 249 249 249 250 250 250 250 249 249 252 254 253 255 261 267 275 279 289 306 316 314 309 310 319 305 285 277 274 272
71 97 68 247 217 236 249 224 223 251 288 289 306 313 297 299 304 307 305 310 311 302 310 341 351 338 341 340 337 337 338 344 347 343 330 322 316 312 308 300 294 288 285 286 284 283 283 281 277 276 279 279 276 273 271 269 268 266 260 253 250 248 248 246 245 244 245 248 250 253 254 253 252 253 253 251 248 248 252 253 255 260 266 270 274 288 307 314 315 312 309 314 302 284 277 274 272
128 135 168 222 179 238 263 245 254 268 276 277 296 308 304 309 304 283 318 335 310 314 349 343 331 331 339 344 353 7 7 9 6 2 350 333 322 315 309 308 303 297 295 291 288 282 279 280 273 267 269 273 275 271 269 269 270 270 269 264 257 253 252 251 251 251 250 249 247 249 255 259 260 259 257 254 251 248 249 254 257 260 265 268 277 290 302 310 313 315 312 304 296 284 274 267 268
169 210 224 210 160 226 278 280 293 276 270 280 289 300 301 304 298 278 259 271 282 318 330 321 323 334 352 355 6 17 16 19 14 7 0 349 335 326 317 312 306 303 302 297 293 284 275 275 270 259 254 260 268 268 265 266 268 269 271 271 267 261 256 253 252 254 258 264 261 253 250 255 259 261 260 257 255 251 246 248 256 262 267 268 273 281 289 302 308 312 315 305 294 284 273 264 263
215 266 267 252 212 239 282 298 302 287 280 284 284 293 294 295 302 287 256 252 272 299 308 312 333 5 18 12 13 14 15 15 9 1 353 345 337 330 320 312 306 302 301 300 296 288 276 266 260 252 243 244 252 260 260 258 263 269 272 272 270 268 262 254 252 250 247 254 266 268 264 261 261 262 263 261 255 253 250 247 253 261 268 272 272 275 285 298 304 309 314 309 298 285 273 265 259
167 273 290 290 258 259 286 299 296 289 284 286 290 291 286 285 295 291 274 276 290 295 304 334 9 31 52 39 19 14 9 3 357 352 342 334 328 325 321 316 312 307 303 300 296 291 279 260 249 239 228 225 229 242 253 256 263 267 274 276 273 273 268 258 259 264 253 243 251 260 263 265 269 266 265 266 259 257 258 256 262 267 268 277 283 287 295 297 299 306 312 311 303 290 276 267 260
169 242 283 292 276 282 298 302 296 294 292 292 292 278 277 282 274 281 295 305 317 226 136 74 65 55 51 33 26 18 5 353 343 335 326 321 319 317 316 315 313 309 306 301 297 296 287 264 241 226 218 214 211 217 236 251 264 271 282 287 287 282 273 258 251 256 256 250 250 252 253 258 266 268 266 268 267 265 256 251 264 277 274 279 286 293 294 291 296 305 309 310 306 295 282 271 263
211 237 288 299 296 300 303 300 297 299 298 291 281 273 282 292 276 285 327 16 111 133 141 118 105 13 11 12 11 4 352 341 331 323 318 315 309 305 305 308 312 315 317 317 314 313 311 289 245 223 217 212 207 203 211 233 254 273 289 294 302 299 287 271 249 241 240 247 253 254 255 255 258 267 269 268 265 263 255 247 258 269 269 274 281 286 287 290 297 300 304 306 304 298 289 277 268
281 293 304 296 297 301 298 292 291 295 293 278 251 269 292 307 270 290 81 95 128 161 135 119 68 7 11 360 353 348 340 336 337 333 318 308 303 307 309 310 313 323 330 331 334 338 341 329 283 241 222 212 209 199 192 204 221 248 276 292 302 305 298 284 267 252 236 236 242 249 253 253 254 264 272 269 259 261 261 257 260 264 267 272 277 282 287 292 293 293 299 302 301 300 295 286 274
331 334 313 299 308 305 293 286 288 290 291 276 233 258 303 300 218 137 92 88 166 184 112 105 70 39 17 352 347 337 332 338 343 341 338 335 336 340 342 337 332 333 333 335 345 352 355 350 329 276 229 214 212 203 190 189 195 213 241 275 290 297 295 274 259 250 229 224 230 243 250 254 259 263 272 276 266 266 269 265 263 267 274 275 277 283 285 287 289 292 297 299 299 299 299 295 284
329 0 325 308 335 320 297 293 286 188 282 297 194 276 306 239 179 94 82 105 151 106 95 100 101 85 18 1 348 338 340 341 338 343 359 11 13 10 5 2 360 354 350 348 348 346 343 343 337 297 233 217 213 206 195 188 189 197 204 224 264 315 334 329 289 256 231 225 228 245 258 265 267 262 273 284 277 269 272 271 268 271 280 279 280 284 284 287 291 293 295 296 299 301 303 303 294
308 20 33 318 347 324 306 13 139 132 294 234 137 287 282 264 115 77 68 126 110 63 86 93 106 115 61 17 345 351 349 338 342 357 10 18 21 21 19 17 12 6 4 359 350 344 334 322 309 264 223 211 204 197 194 190 189 193 194 196 180 105 48 356 336 8 11 259 243 250 251 264 267 262 278 286 281 275 276 277 275 276 285 283 282 284 285 289 290 291 295 298 302 305 308 309 303
304 15 30 353 352 279 299 345 248 29 326 178 144 222 267 280 27 54 34 18 26 61 84 83 91 95 64 42 3 359 351 352 5 17 24 27 31 31 31 31 26 21 15 9 9 11 359 321 283 237 213 203 195 186 184 183 183 185 181 180 168 146 139 240 253 240 242 241 242 254 248 251 254 249 260 270 272 277 277 279 278 276 282 282 283 286 288 288 289 293 298 303 308 310 312 313 310
18 360 307 330 174 265 310 337 166 162 358 104 129 205 277 285 33 32 20 22 37 67 84 80 79 74 58 41 17 9 6 20 29 39 45 43 45 42 43 43 39 38 33 32 36 35 34 35 49 172 188 185 183 167 160 162 169 167 159 161 166 166 178 211 233 236 241 235 235 251 249 246 249 245 252 263 267 269 268 271 271 272 283 285 284 287 290 294 296 297 300 306 310 311 314 315 314
357 166 249 269 199 273 323 340 32 97 127 43 66 199 285 269 77 25 18 34 41 71 83 77 76 66 61 53 36 37 31 46 56 60 60 55 54 50 51 51 46 47 46 49 51 51 56 61 65 69 86 99 112 120 121 123 133 140 141 151 155 153 169 178 198 216 228 230 238 260 256 243 246 252 258 258 261 265 268 271 269 273 278 275 275 277 282 289 292 294 298 302 305 308 309 310 311
308 8 233 247 212 230 303 301 1 43 96 31 6 176 263 257 27 16 19 41 50 79 84 76 81 71 70 70 66 69 58 67 67 67 67 62 63 61 60 57 54 54 55 56 55 59 65 66 68 68 73 76 79 87 91 96 102 119 129 142 157 152 151 166 197 212 217 234 248 269 278 255 250 261 270 263 258 263 264 262 260 260 260 260 269 272 272 274 276 277 278 281 293 302 300 301 303
208 183 208 246 230 231 258 259 312 13 27 9 324 242 267 273 354 23 31 57 77 90 91 88 87 81 85 84 84 86 81 80 73 73 75 74 76 72 69 65 61 57 56 59 61 68 74 76 77 77 77 75 75 78 83 90 89 93 101 101 134 132 104 157 252 248 247 261 279 311 302 275 258 261 276 284 281 282 282 274 270 271 269 267 267 267 266 265 268 270 269 270 280 288 292 297 301
184 175 163 187 218 244 241 244 259 348 4 300 245 233 266 279 348 27 42 73 91 98 97 94 91 90 93 88 88 88 86 86 83 86 90 92 92 84 80 74 69 67 66 69 74 82 86 89 92 89 85 82 82 87 87 88 87 93 99 84 91 100 81 57 60 69 55 296 351 359 347 338 329 302 291 296 297 299 305 299 286 283 282 276 264 268 276 276 274 274 272 274 278 281 289 298 302
141 137 142 187 219 260 252 255 280 164 161 269 222 213 256 265 349 11 57 87 84 92 95 93 96 96 93 90 89 87 86 87 90 100 105 101 96 90 88 86 85 85 83 83 85 87 88 92 95 92 93 97 98 98 93 88 87 91 98 94 93 103 111 39 25 39 21 339 304 303 302 303 308 305 298 299 299 296 302 302 291 290 293 293 281 278 285 284 278 275 273 275 278 281 286 290 292
121 140 188 242 223 253 258 246 299 319 175 260 219 230 263 244 40 3 59 86 67 83 102 99 101 98 94 93 91 91 92 96 103 106 105 102 99 97 95 95 94 90 88 87 86 86 88 89 89 89 93 97 95 94 94 92 89 81 82 89 83 80 125 223 313 338 333 308 285 284 288 286 283 283 285 289 291 289 291 298 307 316 319 319 316 307 302 298 291 287 287 285 284 285 286 287 288
172 136 184 266 234 270 286 286 338 17 173 264 323 301 276 259 75 31 54 78 74 91 113 108 108 104 100 101 100 104 107 108 109 108 107 105 102 101 98 95 92 89 88 87 86 87 87 86 85 86 85 84 83 82 80 79 78 76 75 78 79 80 84 72 47 41 19 342 321 315 313 305 293 285 283 283 284 283 283 286 294 300 299 300 304 305 305 307 306 304 302 300 299 298 296 295 292
197 156 179 248 233 320 282 295 338 10 118 259 15 329 286 303 85 53 61 90 91 93 106 106 111 109 106 110 111 113 113 111 110 109 108 106 104 102 98 94 92 90 89 87 87 87 85 84 83 83 82 80 79 77 75 73 73 74 73 73 72 72 72 67 65 64 55 48 44 38 30 21 6 342 322 311 305 303 299 295 295 296 295 294 292 291 291 294 296 297 299 300 302 303 303 301 298
240 201 203 223 215 214 231 289 333 350 13 51 80 350 301 280 205 90 82 98 91 90 100 98 104 111 114 119 120 119 116 114 112 111 110 109 107 104 100 98 96 93 89 87 86 85 84 83 82 81 80 78 78 76 75 74 73 74 75 75 74 76 81 83 77 70 65 59 54 47 42 38 31 22 16 7 358 349 338 330 325 320 316 311 304 299 295 292 292 293 296 298 298 299 299 299 300
279 230 210 214 217 224 236 341 8 10 346 346 49 328 293 311 293 194 161 87 67 73 86 88 104 119 127 128 124 123 120 117 115 113 113 111 109 106 103 101 97 93 89 85 84 84 83 82 81 80 78 76 75 75 76 75 76 79 80 82 85 87 88 81 69 62 58 54 50 46 42 40 36 31 26 21 16 10 4 357 350 344 339 335 333 330 323 316 309 305 304 302 298 295 293 294 294
273 246 204 206 205 198 193 140 87 110 262 316 42 186 253 314 312 212 167 95 60 54 66 89 126 132 137 135 131 130 124 120 118 116 116 114 111 108 104 100 96 93 89 85 84 83 82 82 82 81 79 78 77 77 79 78 78 81 78 77 78 74 67 66 63 58 56 53 50 48 46 43 39 35 33 30 26 21 17 10 6 1 355 350 346 343 342 341 338 331 325 317 309 302 296 294 292
231 238 155 158 170 179 180 153 153 216 251 325 6 137 229 288 284 244 155 128 73 360 50 139 156 151 148 144 140 137 129 125 123 121 119 117 112 108 102 98 95 93 91 89 86 83 82 81 81 81 80 80 78 75 74 71 68 67 63 58 59 61 61 66 67 63 62 58 52 51 48 44 41 37 34 34 32 30 27 23 20 16 12 8 2 358 356 353 350 343 336 329 320 314 309 305 300
242 198 124 133 150 156 144 129 151 259 17 309 303 133 231 264 274 318 134 195 249 222 216 210 183 170 161 156 151 143 137 132 128 125 123 118 113 107 103 100 96 95 95 93 90 85 81 79 79 79 78 77 75 71 65 64 62 59 56 52 53 61 64 67 69 66 64 56 47 48 45 41 39 35 31 30 28 28 28 25 23 20 19 18 15 13 11 6 2 357 354 351 344 336 329 322 314
186 135 95 82 83 88 93 110 123 67 61 246 246 192 209 270 283 291 160 250 243 207 209 209 190 180 171 166 160 151 144 138 133 130 126 121 116 111 107 104 102 100 98 94 91 87 82 78 76 75 75 75 73 69 61 62 64 58 57 56 57 65 69 71 70 63 59 52 43 42 39 35 32 28 27 25 21 21 21 18 16 14 14 14 11 10 8 5 4 3 2 1 358 355 350 343 334
137 115 66 52 37 41 44 58 94 83 265 243 232 195 182 263 278 229 189 232 203 168 182 201 193 187 180 174 167 159 152 145 139 135 130 126 121 118 114 112 109 104 100 97 93 90 85 80 74 72 76 76 77 76 68 67 69 60 60 61 61 67 71 69 57 48 48 39 32 34 32 27 24 21 19 16 13 14 13 10 9 8 6 4 3 2 1 360 359 358 356 354 353 353 353 352 349
119 95 79 75 356 14 26 357 49 145 251 256 249 177 159 209 257 237 210 227 192 169 179 184 188 191 185 179 172 166 158 151 146 141 136 133 129 126 123 119 113 107 104 101 97 93 88 81 70 67 74 78 78 80 72 65 64 56 55 55 52 57 56 39 25 26 28 23 23 25 20 16 14 11 8 5 4 4 4 2 360 358 356 355 355 355 354 354 352 350 348 346 346 345 345 344 344
89 95 104 101 339 1 353 306 270 225 246 262 248 154 176 225 244 225 196 200 212 214 201 185 185 187 185 181 176 171 165 158 152 147 143 141 138 135 133 127 119 114 111 107 102 97 90 82 71 61 69 78 77 76 69 56 51 48 46 41 38 38 27 18 16 15 15 14 13 11 6 4 2 0 360 360 1 1 359 357 355 354 352 351 350 348 347 345 344 343 341 339 339 339 338 337 337
151 143 132 130 120 119 264 263 270 266 256 266 270 161 221 262 261 216 192 204 236 242 225 198 190 186 183 181 178 174 170 165 160 155 151 149 146 144 140 134 129 125 123 119 112 105 96 87 76 57 65 79 79 74 64 48 44 44 39 33 32 26 16 12 10 7 8 6 3 1 358 357 357 356 356 356 357 357 354 353 352 351 349 347 345 343 341 340 338 337 336 335 334 333 333 332 330
180 160 133 144 156 174 223 219 210 249 271 298 299 199 192 210 241 235 232 262 265 248 229 204 195 189 183 181 182 180 176 171 167 163 159 156 153 151 149 144 142 139 134 132 125 116 110 98 80 56 61 77 78 67 51 35 35 36 31 27 22 14 10 7 4 2 1 357 355 353 350 349 348 348 348 348 347 346 346 346 345 344 342 340 339 337 335 334 333 331 331 330 329 328 327 327 325
208 127 114 168 187 158 176 198 177 180 290 296 237 225 220 192 223 291 284 298 308 242 206 188 190 190 185 185 187 184 180 176 174 170 165 163 161 159 159 156 155 154 148 148 145 134 130 120 95 69 68 86 86 66 41 24 28 24 17 13 7 4 1 356 354 353 349 348 347 343 340 339 337 336 335 333 332 332 332 332 332 332 333 332 332 331 330 328 327 326 325 324 323 323 322 322 322
162 123 174 219 183 119 112 247 52 82 253 268 197 240 289 327 275 308 9 343 348 77 162 173 181 184 186 190 190 187 185 182 179 174 170 169 169 167 167 167 166 166 164 163 162 157 157 165 167 173 175 160 152 142 77 34 29 8 350 346 341 339 338 336 339 340 340 340 337 335 333 330 328 326 324 323 323 322 321 321 321 321 322 323 324 325 325 325 324 323 323 322 320 319 318 318 318
126 179 210 204 132 96 106 232 347 42 245 273 220 226 257 208 244 312 28 280 257 210 177 173 179 184 190 195 194 191 188 186 183 179 177 177 176 175 175 174 175 176 178 178 178 179 182 191 197 195 193 185 180 183 176 178 214 290 295 305 318 326 332 335 336 335 334 332 329 327 326 325 324 323 322 322 320 319 319 319 319 319 319 319 320 321 321 321 322 322 322 321 321 319 318 316 315
125 184 183 117 149 172 103 163 226 229 246 281 298 258 240 198 201 208 205 223 218 198 188 183 186 191 196 199 197 194 191 190 189 185 183 183 182 182 180 179 183 185 189 191 192 196 199 203 204 200 201 196 192 196 191 203 232 261 293 312 326 333 337 334 332 330 327 324 322 322 323 322 322 322 321 321 320 319 318 317 317 318 318 318 318 318 318 318 318 319 319 319 319 318 317 316 315
82 110 112 81 160 178 158 153 171 182 221 274 302 305 263 225 200 177 194 210 194 178 186 197 199 198 199 200 198 195 194 193 192 189 188 188 187 187 186 188 193 195 197 200 202 206 206 208 207 205 207 205 203 206 205 220 246 270 299 317 324 326 327 325 324 324 323 322 323 322 322 321 320 319 319 319 319 319 318 318 319 319 318 318 318 317 317 316 316 316 315 315 315 314 314 313 313
133 145 177 199 154 137 193 201 122 134 175 214 271 282 269 251 200 180 198 210 186 182 187 194 201 202 202 202 198 196 196 195 193 192 191 191 191 191 191 195 200 201 204 206 207 209 209 208 209 208 210 210 206 208 212 232 261 286 299 307 312 315 317 320 323 325 325 327 327 325 324 322 320 319 318 317 318 319 319 319 319 320 320 319 319 318 318 317 315 314 314 313 312 311 310 310 309
169 188 196 191 172 133 187 242 193 120 177 184 200 264 271 251 200 190 207 214 192 192 189 189 200 203 203 202 199 199 198 196 195 195 195 195 195 196 197 201 204 207 209 210 209 209 209 209 211 211 212 211 211 219 235 260 276 287 297 305 311 315 319 323 326 328 328 328 327 327 326 324 323 322 320 321 321 321 321 321 321 321 321 321 320 320 318 317 316 314 313 312 311 310 309 308 307